Language: 


Des rapports , des résumés tant et plus, au choix de chacun....


Données statistiques de la station
Quotidien Rapport Février 7, 2018 Unités:  Métrique    Anglais   les deux
« Précédent Jour
Suivant Jour »
Quotidien Hebdomadaire Mensuel Annuel Actuel
  Haut: Bas: Moyen:
Température: -17.8 °C -19.5 °C -18.1 °C
Pt de rosée: -17.8 °C -22.8 °C -21.2 °C
Humidité: Humidity % 45 % 68 %
Vitesse du vent: 0 km/h 0 km/h 13.5 km/h
Rafales: 0 km/h - -
Vent:- - NE
Pression: 0 hPa 34337.4 hPa -
Précipitation: 0 mm    
Historical Graphs
 
 
Données statistiques pour Février 7, 2018
Heure Température Point de rosée Pression Vent Vitesse du vent Refales Humidité Pluie (taux horaire)
-17.8 °C -17.8 °C 0 hPa Calm     Humidity % 0 mm
00:02 -18.2 °C -20 °C 34337.4 hPa NNE 14 km/h 14 km/h 81 % 0 mm
00:07 -18.2 °C -20.6 °C 34337.4 hPa NNE 14 km/h 14 km/h 81 % 0 mm
00:13 -18.2 °C -20.6 °C 34337.4 hPa NNE 14 km/h 14 km/h 81 % 0 mm
00:18 -18.3 °C -20.6 °C 34337.4 hPa ENE 16.9 km/h 16.9 km/h 80 % 0 mm
00:23 -18.3 °C -20.6 °C 34337.4 hPa NNE 19.2 km/h 19.2 km/h 80 % 0 mm
00:28 -18.3 °C -20.6 °C 34337.4 hPa NNE 19.2 km/h 19.2 km/h 80 % 0 mm
00:33 -18.3 °C -20.6 °C 34337.4 hPa NNE 20.9 km/h 20.9 km/h 81 % 0 mm
00:38 -18.3 °C -20.6 °C 34337.4 hPa NNE 20.9 km/h 20.9 km/h 81 % 0 mm
00:42 -18.3 °C -20.6 °C 34337.4 hPa NE 20.3 km/h 20.9 km/h 81 % 0 mm
00:48 -18.3 °C -20.6 °C 34337.4 hPa NE 20.3 km/h 20.9 km/h 81 % 0 mm
00:53 -18.3 °C -20.6 °C 34337.4 hPa NE 20.3 km/h 20.3 km/h 81 % 0 mm
00:58 -18.3 °C -20.6 °C 34337.4 hPa NE 20.3 km/h 20.3 km/h 81 % 0 mm
01:03 -18.3 °C -20.6 °C 34337.4 hPa NE 20.3 km/h 20.3 km/h 81 % 0 mm
01:08 -18.3 °C -20.6 °C 34337.4 hPa NE 20.3 km/h 20.3 km/h 81 % 0 mm
01:13 -18.3 °C -20.6 °C 34337.4 hPa North 20.3 km/h 20.3 km/h 81 % 0 mm
01:18 -18.3 °C -20.6 °C 34337.4 hPa North 20.3 km/h 20.3 km/h 81 % 0 mm
01:23 -18.3 °C -20 °C 34337.4 hPa North 20.3 km/h 20.3 km/h 82 % 0 mm
01:28 -18.3 °C -20 °C 34337.4 hPa North 20.3 km/h 20.3 km/h 82 % 0 mm
01:33 -18.3 °C -20 °C 34337.4 hPa North 20.3 km/h 20.3 km/h 82 % 0 mm
01:38 -18.3 °C -20 °C 34337.4 hPa North 20.3 km/h 20.3 km/h 82 % 0 mm
01:43 -18.3 °C -20 °C 34337.4 hPa North 20.3 km/h 20.3 km/h 82 % 0 mm
01:49 -18.3 °C -20 °C 34337.4 hPa North 20.3 km/h 20.3 km/h 82 % 0 mm
01:54 -18.3 °C -20 °C 34337.4 hPa NNE 22.5 km/h 22.5 km/h 82 % 0 mm
01:59 -18.3 °C -20 °C 34337.4 hPa NNE 22.5 km/h 22.5 km/h 82 % 0 mm
02:04 -18.3 °C -20.6 °C 34337.4 hPa NNE 19.2 km/h 22.5 km/h 80 % 0 mm
02:09 -18.3 °C -20.6 °C 34337.4 hPa NNE 20.3 km/h 22.5 km/h 80 % 0 mm
02:14 -18.3 °C -20.6 °C 34337.4 hPa NNE 20.3 km/h 20.3 km/h 79 % 0 mm
02:19 -18.3 °C -20.6 °C 34337.4 hPa NNE 20.3 km/h 20.3 km/h 78 % 0 mm
02:24 -18.3 °C -20.6 °C 34337.4 hPa NNE 20.3 km/h 20.3 km/h 78 % 0 mm
02:29 -18.3 °C -20.6 °C 34337.4 hPa NE 20.9 km/h 20.9 km/h 78 % 0 mm
02:34 -18.3 °C -20.6 °C 34337.4 hPa NE 20.9 km/h 20.9 km/h 78 % 0 mm
02:39 -18.3 °C -20.6 °C 34337.4 hPa NE 20.9 km/h 20.9 km/h 77 % 0 mm
02:44 -18.3 °C -20.6 °C 34337.4 hPa NE 20.9 km/h 20.9 km/h 77 % 0 mm
02:49 -18.3 °C -20.6 °C 34337.4 hPa NE 20.3 km/h 20.9 km/h 77 % 0 mm
02:54 -18.4 °C -20.6 °C 34337.4 hPa ENE 20.3 km/h 24.8 km/h 77 % 0 mm
02:59 -18.4 °C -20.6 °C 34337.4 hPa NNE 20.9 km/h 24.8 km/h 76 % 0 mm
03:04 -18.4 °C -20.6 °C 34337.4 hPa NNE 19.2 km/h 23.8 km/h 76 % 0 mm
03:09 -18.4 °C -20.6 °C 34337.4 hPa NE 20.9 km/h 22.5 km/h 75 % 0 mm
03:14 -18.4 °C -20.6 °C 34337.4 hPa NE 22 km/h 22.5 km/h 75 % 0 mm
03:19 -18.4 °C -21.1 °C 34337.4 hPa NNE 18.7 km/h 29 km/h 74 % 0 mm
03:24 -18.4 °C -21.1 °C 34337.4 hPa NE 15 km/h 29 km/h 74 % 0 mm
03:29 -18.4 °C -21.1 °C 34337.4 hPa NE 23.8 km/h 23.8 km/h 73 % 0 mm
03:34 -18.4 °C -21.1 °C 34337.4 hPa NE 7.6 km/h 23.8 km/h 72 % 0 mm
03:39 -18.5 °C -21.1 °C 34337.4 hPa NE 20.3 km/h 23.8 km/h 72 % 0 mm
03:44 -18.5 °C -21.1 °C 34337.4 hPa NNE 14.5 km/h 22 km/h 71 % 0 mm
03:49 -18.6 °C -21.1 °C 34337.4 hPa NNE 15 km/h 20.3 km/h 71 % 0 mm
03:55 -18.6 °C -21.1 °C 34337.4 hPa NE 15 km/h 19.6 km/h 72 % 0 mm
04:00 -18.6 °C -21.1 °C 34337.4 hPa NNE 14.5 km/h 20.3 km/h 72 % 0 mm
04:05 -18.6 °C -21.1 °C 34337.4 hPa NNE 16.9 km/h 20.3 km/h 72 % 0 mm
04:10 -18.7 °C -21.1 °C 34337.4 hPa NNE 14.5 km/h 20.3 km/h 73 % 0 mm
04:15 -18.7 °C -21.1 °C 34337.4 hPa NE 2.3 km/h 16.9 km/h 73 % 0 mm
04:20 -18.8 °C -21.1 °C 34337.4 hPa NE 10.3 km/h 16.9 km/h 74 % 0 mm
04:25 -18.8 °C -21.1 °C 34337.4 hPa North 7.6 km/h 16.9 km/h 75 % 0 mm
04:30 -18.9 °C -21.1 °C 34337.4 hPa North 11.1 km/h 12.7 km/h 76 % 0 mm
04:35 -18.9 °C -21.1 °C 34337.4 hPa NNE 10.3 km/h 19.2 km/h 77 % 0 mm
04:40 -18.9 °C -21.1 °C 34337.4 hPa NNE 11.1 km/h 19.2 km/h 77 % 0 mm
04:45 -18.9 °C -21.1 °C 34337.4 hPa NE 10.3 km/h 15.6 km/h 78 % 0 mm
04:50 -18.9 °C -21.1 °C 34337.4 hPa NNE 14.5 km/h 15.6 km/h 79 % 0 mm
04:55 -19 °C -21.1 °C 34337.4 hPa NNE 14 km/h 15.6 km/h 80 % 0 mm
05:00 -19 °C -21.1 °C 34337.4 hPa NNE 15.6 km/h 20.3 km/h 80 % 0 mm
05:05 -19 °C -21.1 °C 34337.4 hPa NNW 15 km/h 20.3 km/h 81 % 0 mm
05:10 -19 °C -21.1 °C 34337.4 hPa North 14 km/h 20.3 km/h 81 % 0 mm
05:15 -18.9 °C -20.6 °C 34337.4 hPa North 15 km/h 20.3 km/h 82 % 0 mm
05:20 -18.9 °C -20.6 °C 34337.4 hPa NE 16.9 km/h 22.5 km/h 82 % 0 mm
05:25 -18.9 °C -20.6 °C 34337.4 hPa NE 16.9 km/h 22.5 km/h 82 % 0 mm
05:30 -18.8 °C -20.6 °C 34337.4 hPa NE 15.6 km/h 22.5 km/h 80 % 0 mm
05:36 -18.8 °C -20.6 °C 34337.4 hPa NE 19.6 km/h 24.8 km/h 80 % 0 mm
05:41 -18.8 °C -21.1 °C 34337.4 hPa ENE 22 km/h 24.8 km/h 79 % 0 mm
05:46 -18.8 °C -21.1 °C 34337.4 hPa NNE 22.5 km/h 23 km/h 78 % 0 mm
05:51 -18.8 °C -21.1 °C 34337.4 hPa NNE 20.3 km/h 23 km/h 77 % 0 mm
05:56 -18.8 °C -21.1 °C 34337.4 hPa North 19.2 km/h 22.5 km/h 77 % 0 mm
06:01 -18.8 °C -21.1 °C 34337.4 hPa ENE 16.9 km/h 22.5 km/h 76 % 0 mm
06:06 -18.8 °C -21.1 °C 34337.4 hPa NE 20.9 km/h 25.4 km/h 75 % 0 mm
06:11 -18.8 °C -21.1 °C 34337.4 hPa NNE 19.2 km/h 25.4 km/h 75 % 0 mm
06:16 -18.8 °C -21.1 °C 34337.4 hPa NNE 14.5 km/h 22.5 km/h 75 % 0 mm
06:21 -18.9 °C -21.1 °C 34337.4 hPa NE 16.3 km/h 23 km/h 75 % 0 mm
06:26 -18.9 °C -21.1 °C 34337.4 hPa ENE 15 km/h 23 km/h 75 % 0 mm
06:31 -18.9 °C -21.1 °C 34337.4 hPa NE 19.2 km/h 22.5 km/h 75 % 0 mm
06:36 -18.9 °C -21.1 °C 34337.4 hPa NE 10.3 km/h 23 km/h 75 % 0 mm
06:41 -19.1 °C -21.7 °C 34337.4 hPa NE 17.9 km/h 23 km/h 75 % 0 mm
06:46 -19.1 °C -21.7 °C 34337.4 hPa NNE 22 km/h 22 km/h 75 % 0 mm
06:51 -19.1 °C -21.7 °C 34337.4 hPa NE 15.6 km/h 22 km/h 75 % 0 mm
06:56 -19.1 °C -21.7 °C 34337.4 hPa NE 17.9 km/h 19.2 km/h 75 % 0 mm
07:01 -19.1 °C -21.7 °C 34371.3 hPa NE 15 km/h 19.2 km/h 76 % 0 mm
07:06 -19.2 °C -21.7 °C 34371.3 hPa NE 14.5 km/h 16.3 km/h 76 % 0 mm
07:11 -19.2 °C -21.7 °C 34371.3 hPa NNE 12.7 km/h 16.3 km/h 76 % 0 mm
07:16 -19.3 °C -21.7 °C 34371.3 hPa NE 11.1 km/h 16.9 km/h 77 % 0 mm
07:21 -19.3 °C -21.7 °C 34371.3 hPa NE 15.6 km/h 16.9 km/h 77 % 0 mm
07:26 -19.3 °C -21.7 °C 34371.3 hPa NE 7.6 km/h 15.6 km/h 78 % 0 mm
07:32 -19.3 °C -21.7 °C 34371.3 hPa NE 8 km/h 17.4 km/h 78 % 0 mm
07:37 -19.3 °C -21.7 °C 34371.3 hPa NNE 4.2 km/h 17.4 km/h 79 % 0 mm
07:42 -19.3 °C -21.7 °C 34371.3 hPa North 6.4 km/h 15 km/h 79 % 0 mm
07:47 -19.4 °C -21.7 °C 34371.3 hPa NNE 5.1 km/h 14 km/h 79 % 0 mm
07:52 -19.4 °C -21.7 °C 34371.3 hPa North 6.4 km/h 12.2 km/h 79 % 0 mm
07:57 -19.4 °C -21.7 °C 34371.3 hPa North 2.9 km/h 12.7 km/h 79 % 0 mm
08:02 -19.4 °C -21.1 °C 34371.3 hPa North 9.8 km/h 15 km/h 80 % 0 mm
08:07 -19.4 °C -21.1 °C 34371.3 hPa NNE 5.1 km/h 15 km/h 80 % 0 mm
08:12 -19.4 °C -21.1 °C 34371.3 hPa NNW 12.7 km/h 12.7 km/h 80 % 0 mm
08:17 -19.4 °C -21.1 °C 34371.3 hPa North 11.1 km/h 12.7 km/h 80 % 0 mm
08:22 -19.5 °C -21.1 °C 34371.3 hPa NNE 9.8 km/h 15.6 km/h 80 % 0 mm
08:27 -19.5 °C -21.1 °C 34371.3 hPa Calm   15.6 km/h 80 % 0 mm
08:32 -19.4 °C -21.1 °C 34371.3 hPa NNE 6.9 km/h 14 km/h 80 % 0 mm
08:37 -19.4 °C -21.1 °C 34371.3 hPa North 7.6 km/h 14 km/h 80 % 0 mm
08:42 -19.4 °C -21.1 °C 34371.3 hPa NE 6.9 km/h 11.1 km/h 80 % 0 mm
08:47 -19.4 °C -21.1 °C 34405.1 hPa NE 6.9 km/h 9.3 km/h 80 % 0 mm
08:52 -19.4 °C -21.1 °C 34405.1 hPa NNE 6.4 km/h 6.9 km/h 80 % 0 mm
08:57 -19.3 °C -21.1 °C 34405.1 hPa Calm   6.9 km/h 81 % 0 mm
09:02 -19.2 °C -21.1 °C 34405.1 hPa North 2.9 km/h 6.4 km/h 82 % 0 mm
09:07 -19.1 °C -21.1 °C 34405.1 hPa NNE 12.7 km/h 12.7 km/h 82 % 0 mm
09:12 -19.1 °C -21.1 °C 34405.1 hPa NNE 12.7 km/h 12.7 km/h 82 % 0 mm
09:17 -19 °C -20.6 °C 34405.1 hPa NNE 12.7 km/h 12.7 km/h 82 % 0 mm
09:22 -18.9 °C -21.1 °C 34405.1 hPa NNE 12.7 km/h 12.7 km/h 81 % 0 mm
09:27 -18.8 °C -20.6 °C 34405.1 hPa NNE 12.7 km/h 12.7 km/h 80 % 0 mm
09:32 -18.6 °C -20.6 °C 34428.8 hPa NNE 12.7 km/h 12.7 km/h 80 % 0 mm
09:37 -18.6 °C -20.6 °C 34428.8 hPa NNE 12.7 km/h 12.7 km/h 79 % 0 mm
09:43 -18.5 °C -20.6 °C 34428.8 hPa NNE 12.7 km/h 12.7 km/h 78 % 0 mm
09:48 -18.5 °C -21.1 °C 34428.8 hPa NNE 12.7 km/h 12.7 km/h 76 % 0 mm
09:53 -18.6 °C -21.1 °C 34428.8 hPa NNE 12.7 km/h 12.7 km/h 76 % 0 mm
09:58 -18.6 °C -21.1 °C 34428.8 hPa NNE 12.7 km/h 12.7 km/h 75 % 0 mm
10:03 -18.4 °C -21.1 °C 34428.8 hPa NNE 12.7 km/h 12.7 km/h 76 % 0 mm
10:08 -18.4 °C -20.6 °C 34428.8 hPa NNE 12.7 km/h 12.7 km/h 75 % 0 mm
10:13 -18.3 °C -20.6 °C 34428.8 hPa NNE 12.7 km/h 12.7 km/h 75 % 0 mm
10:18 -18.1 °C -21.1 °C 34428.8 hPa NNE 12.7 km/h 12.7 km/h 73 % 0 mm
10:23 -18.1 °C -21.1 °C 34428.8 hPa NNE 12.7 km/h 12.7 km/h 72 % 0 mm
10:28 -18 °C -20.6 °C 34428.8 hPa NNE 12.7 km/h 12.7 km/h 72 % 0 mm
10:33 -17.9 °C -21.1 °C 34405.1 hPa NNE 14 km/h 14 km/h 70 % 0 mm
10:38 -17.8 °C -21.1 °C 34405.1 hPa NNE 14 km/h 14 km/h 69 % 0 mm
10:43 -17.7 °C -20.6 °C 34405.1 hPa NNE 14 km/h 14 km/h 68 % 0 mm
10:48 -17.7 °C -20.6 °C 34428.8 hPa NNE 14 km/h 14 km/h 67 % 0 mm
10:53 -17.6 °C -20.6 °C 34428.8 hPa NNE 14 km/h 14 km/h 65 % 0 mm
10:58 -17.6 °C -21.1 °C 34428.8 hPa NNE 14 km/h 14 km/h 62 % 0 mm
11:03 -17.4 °C -21.1 °C 34428.8 hPa NNE 14 km/h 14 km/h 60 % 0 mm
11:09 -17.4 °C -21.1 °C 34428.8 hPa NNE 14 km/h 14 km/h 58 % 0 mm
11:14 -17.4 °C -21.7 °C 34428.8 hPa NNE 14 km/h 14 km/h 57 % 0 mm
11:19 -17.3 °C -21.7 °C 34428.8 hPa NNE 14 km/h 14 km/h 55 % 0 mm
11:24 -17.3 °C -21.7 °C 34428.8 hPa NNE 14 km/h 14 km/h 56 % 0 mm
11:29 -17.3 °C -21.7 °C 34428.8 hPa NNE 14 km/h 14 km/h 55 % 0 mm
11:34 -17.2 °C -21.7 °C 34428.8 hPa NNE 14 km/h 14 km/h 54 % 0 mm
11:39 -17.1 °C -21.7 °C 34428.8 hPa NNE 14 km/h 14 km/h 54 % 0 mm
11:44 -17.1 °C -21.7 °C 34428.8 hPa NNE 14 km/h 14 km/h 52 % 0 mm
11:49 -17.1 °C -21.7 °C 34428.8 hPa NNE 14 km/h 14 km/h 53 % 0 mm
11:54 -17.1 °C -21.7 °C 34428.8 hPa NNE 14 km/h 14 km/h 52 % 0 mm
11:59 -17 °C -21.7 °C 34428.8 hPa NNE 14 km/h 14 km/h 52 % 0 mm
12:04 -16.9 °C -21.7 °C 34428.8 hPa NNE 14 km/h 14 km/h 50 % 0 mm
12:09 -16.8 °C -21.7 °C 34428.8 hPa NNE 14 km/h 14 km/h 50 % 0 mm
12:14 -16.8 °C -21.7 °C 34428.8 hPa NNE 14 km/h 14 km/h 50 % 0 mm
12:19 -16.8 °C -22.2 °C 34428.8 hPa NNE 14 km/h 14 km/h 47 % 0 mm
12:24 -16.7 °C -22.8 °C 34428.8 hPa NNE 14 km/h 14 km/h 45 % 0 mm
12:29 -16.7 °C -22.2 °C 34428.8 hPa NNE 14 km/h 14 km/h 46 % 0 mm
12:34 -16.7 °C -22.2 °C 34428.8 hPa NNE 14 km/h 14 km/h 46 % 0 mm
12:39 -16.6 °C -22.2 °C 34428.8 hPa NNE 14 km/h 14 km/h 46 % 0 mm
12:49 -16.7 °C -22.2 °C 34428.8 hPa NNE 14 km/h 14 km/h 48 % 0 mm
12:54 -16.7 °C -22.2 °C 34428.8 hPa NNE 14 km/h 14 km/h 47 % 0 mm
12:59 -16.9 °C -22.2 °C 34428.8 hPa NNE 14 km/h 14 km/h 47 % 0 mm
13:04 -16.9 °C -22.2 °C 34428.8 hPa NNE 14 km/h 14 km/h 47 % 0 mm
13:09 -16.9 °C -22.2 °C 34428.8 hPa NNE 14 km/h 14 km/h 48 % 0 mm
13:14 -16.9 °C -22.2 °C 34428.8 hPa NNE 14 km/h 14 km/h 48 % 0 mm
13:19 -16.9 °C -22.2 °C 34428.8 hPa NNE 14 km/h 14 km/h 48 % 0 mm
13:24 -16.9 °C -22.2 °C 34428.8 hPa NNE 14 km/h 14 km/h 49 % 0 mm
13:29 -16.9 °C -22.2 °C 34476.3 hPa NNE 14 km/h 14 km/h 47 % 0 mm
13:34 -16.8 °C -22.2 °C 34476.3 hPa NNE 14 km/h 14 km/h 48 % 0 mm
13:39 -16.7 °C -22.2 °C 34476.3 hPa NNE 14 km/h 14 km/h 48 % 0 mm
13:44 -16.8 °C -22.2 °C 34428.8 hPa NNE 14 km/h 14 km/h 48 % 0 mm
13:49 -16.8 °C -22.2 °C 34428.8 hPa NNE 14 km/h 14 km/h 47 % 0 mm
13:54 -16.8 °C -22.2 °C 34428.8 hPa NNE 14 km/h 14 km/h 47 % 0 mm
13:59 -16.8 °C -22.2 °C 34476.3 hPa NNE 14 km/h 14 km/h 47 % 0 mm
14:04 -16.8 °C -22.2 °C 34476.3 hPa NNE 14 km/h 14 km/h 48 % 0 mm
14:09 -16.8 °C -22.2 °C 34476.3 hPa NNE 14 km/h 14 km/h 48 % 0 mm
14:14 -16.8 °C -22.8 °C 34476.3 hPa NNE 14 km/h 14 km/h 46 % 0 mm
14:19 -16.8 °C -22.8 °C 34476.3 hPa NNE 14 km/h 14 km/h 45 % 0 mm
14:24 -16.7 °C -22.2 °C 34476.3 hPa NNE 14 km/h 14 km/h 46 % 0 mm
14:29 -16.7 °C -22.2 °C 34476.3 hPa NNE 14 km/h 14 km/h 48 % 0 mm
14:34 -16.7 °C -22.2 °C 34476.3 hPa NNE 14 km/h 14 km/h 48 % 0 mm
14:39 -16.7 °C -22.2 °C 34476.3 hPa NNE 14 km/h 14 km/h 48 % 0 mm
14:44 -16.7 °C -22.2 °C 34428.8 hPa NNE 14 km/h 14 km/h 48 % 0 mm
14:50 -16.7 °C -21.7 °C 34428.8 hPa NNE 14 km/h 14 km/h 50 % 0 mm
14:55 -16.7 °C -21.7 °C 34428.8 hPa NNE 14 km/h 14 km/h 50 % 0 mm
15:00 -16.7 °C -21.7 °C 34476.3 hPa NNE 14 km/h 14 km/h 50 % 0 mm
15:05 -16.7 °C -21.7 °C 34476.3 hPa NNE 14 km/h 14 km/h 51 % 0 mm
15:10 -16.7 °C -21.7 °C 34476.3 hPa NNE 14 km/h 14 km/h 50 % 0 mm
15:15 -16.7 °C -21.7 °C 34476.3 hPa NNE 14 km/h 14 km/h 50 % 0 mm
15:20 -16.7 °C -21.7 °C 34476.3 hPa NNE 14 km/h 14 km/h 50 % 0 mm
15:25 -16.7 °C -21.7 °C 34476.3 hPa NNE 14 km/h 14 km/h 50 % 0 mm
15:30 -16.7 °C -21.7 °C 34476.3 hPa NNE 14 km/h 14 km/h 50 % 0 mm
15:35 -16.7 °C -21.7 °C 34476.3 hPa NNE 14 km/h 14 km/h 51 % 0 mm
15:40 -16.7 °C -21.7 °C 34476.3 hPa NNE 14 km/h 14 km/h 50 % 0 mm
15:45 -16.7 °C -21.7 °C 34428.8 hPa NNE 14 km/h 14 km/h 50 % 0 mm
15:50 -16.7 °C -21.7 °C 34428.8 hPa NNE 14 km/h 14 km/h 50 % 0 mm
15:55 -16.7 °C -21.7 °C 34428.8 hPa NNE 14 km/h 14 km/h 51 % 0 mm
16:00 -16.8 °C -21.7 °C 34428.8 hPa NNE 14 km/h 14 km/h 51 % 0 mm
16:05 -16.8 °C -21.7 °C 34428.8 hPa NNE 14 km/h 14 km/h 51 % 0 mm
16:10 -16.8 °C -21.7 °C 34428.8 hPa NNE 14 km/h 14 km/h 50 % 0 mm
16:15 -16.8 °C -21.7 °C 34428.8 hPa NNE 14 km/h 14 km/h 51 % 0 mm
16:20 -16.9 °C -21.7 °C 34428.8 hPa NNE 14 km/h 14 km/h 52 % 0 mm
16:25 -16.9 °C -21.7 °C 34428.8 hPa NNE 14 km/h 14 km/h 53 % 0 mm
16:30 -16.9 °C -21.7 °C 34476.3 hPa NNE 14 km/h 14 km/h 53 % 0 mm
16:35 -16.9 °C -21.7 °C 34476.3 hPa NNE 14 km/h 14 km/h 53 % 0 mm
16:40 -16.9 °C -21.7 °C 34476.3 hPa NNE 14 km/h 14 km/h 53 % 0 mm
16:41 -16.9 °C -21.1 °C 34476.3 hPa NNE 14 km/h 14 km/h 54 % 0 mm
16:46 -16.9 °C -21.1 °C 34428.8 hPa NNE 14 km/h 14 km/h 54 % 0 mm
16:51 -17 °C -21.7 °C 34428.8 hPa NNE 14 km/h 14 km/h 55 % 0 mm
16:56 -17.1 °C -21.7 °C 34428.8 hPa NNE 14 km/h 14 km/h 55 % 0 mm
16:57 -17.1 °C -21.7 °C 34428.8 hPa NNE 14 km/h 14 km/h 55 % 0 mm
17:02 -17.1 °C -21.7 °C 34476.3 hPa NNE 14 km/h 14 km/h 55 % 0 mm
17:07 -17.1 °C -21.1 °C 34476.3 hPa NNE 14 km/h 14 km/h 56 % 0 mm
17:12 -17.1 °C -21.1 °C 34476.3 hPa NNE 14 km/h 14 km/h 56 % 0 mm
17:17 -17.2 °C -21.1 °C 34428.8 hPa NNE 14 km/h 14 km/h 57 % 0 mm
17:22 -17.2 °C -21.1 °C 34428.8 hPa NNE 14 km/h 14 km/h 57 % 0 mm
17:27 -17.2 °C -21.1 °C 34428.8 hPa NNE 14 km/h 14 km/h 58 % 0 mm
17:32 -17.2 °C -21.1 °C 34476.3 hPa NNE 14 km/h 14 km/h 58 % 0 mm
17:37 -17.2 °C -21.1 °C 34476.3 hPa NNE 14 km/h 14 km/h 58 % 0 mm
17:42 -17.2 °C -21.1 °C 34476.3 hPa NNE 14 km/h 14 km/h 58 % 0 mm
17:47 -17.3 °C -21.1 °C 34476.3 hPa NNE 14 km/h 14 km/h 59 % 0 mm
17:52 -17.3 °C -21.1 °C 34476.3 hPa NNE 14 km/h 14 km/h 59 % 0 mm
17:57 -17.3 °C -21.1 °C 34476.3 hPa NNE 14 km/h 14 km/h 59 % 0 mm
18:02 -17.3 °C -21.1 °C 34476.3 hPa NNE 14 km/h 14 km/h 60 % 0 mm
18:07 -17.3 °C -21.1 °C 34476.3 hPa NNE 14 km/h 14 km/h 60 % 0 mm
18:12 -17.3 °C -21.1 °C 34476.3 hPa NNE 14 km/h 14 km/h 60 % 0 mm
18:17 -17.4 °C -21.1 °C 34476.3 hPa NNE 14 km/h 14 km/h 61 % 0 mm
18:22 -17.4 °C -21.1 °C 34476.3 hPa NNE 14 km/h 14 km/h 61 % 0 mm
18:27 -17.4 °C -21.1 °C 34476.3 hPa NNE 14 km/h 14 km/h 61 % 0 mm
18:32 -17.4 °C -21.1 °C 34496.6 hPa NNE 14 km/h 14 km/h 62 % 0 mm
18:37 -17.4 °C -21.1 °C 34496.6 hPa NNE 14 km/h 14 km/h 62 % 0 mm
18:42 -17.4 °C -21.1 °C 34496.6 hPa NNE 14 km/h 14 km/h 62 % 0 mm
18:47 -17.5 °C -21.1 °C 34496.6 hPa NNE 14 km/h 14 km/h 62 % 0 mm
18:52 -17.5 °C -21.1 °C 34496.6 hPa NNE 14 km/h 14 km/h 62 % 0 mm
18:57 -17.6 °C -21.1 °C 34496.6 hPa NNE 14 km/h 14 km/h 63 % 0 mm
19:02 -17.6 °C -21.1 °C 34496.6 hPa NNE 14 km/h 14 km/h 63 % 0 mm
19:07 -17.7 °C -21.1 °C 34496.6 hPa NNE 14 km/h 14 km/h 64 % 0 mm
19:12 -17.7 °C -21.1 °C 34496.6 hPa NNE 14 km/h 14 km/h 64 % 0 mm
19:18 -17.8 °C -21.1 °C 34496.6 hPa NNE 14 km/h 14 km/h 65 % 0 mm
19:23 -17.8 °C -21.1 °C 34496.6 hPa NNE 14 km/h 14 km/h 66 % 0 mm
19:28 -17.9 °C -21.1 °C 34496.6 hPa NNE 14 km/h 14 km/h 66 % 0 mm
19:33 -17.9 °C -21.1 °C 34496.6 hPa NNE 14 km/h 14 km/h 66 % 0 mm
19:38 -17.9 °C -21.1 °C 34496.6 hPa NNE 14 km/h 14 km/h 67 % 0 mm
19:43 -18 °C -21.1 °C 34496.6 hPa NNE 14 km/h 14 km/h 67 % 0 mm
19:48 -18.1 °C -21.7 °C 34496.6 hPa NNE 14 km/h 14 km/h 67 % 0 mm
19:53 -18.1 °C -21.7 °C 34496.6 hPa NNE 14 km/h 14 km/h 67 % 0 mm
19:58 -18.1 °C -21.7 °C 34496.6 hPa NNE 14 km/h 14 km/h 67 % 0 mm
20:03 -18.2 °C -21.1 °C 34496.6 hPa NNE 14 km/h 14 km/h 68 % 0 mm
20:08 -18.2 °C -21.1 °C 34496.6 hPa NNE 14 km/h 14 km/h 68 % 0 mm
20:13 -18.2 °C -21.7 °C 34496.6 hPa NNE 14 km/h 14 km/h 68 % 0 mm
20:18 -18.3 °C -21.7 °C 34476.3 hPa NNE 14 km/h 14 km/h 68 % 0 mm
20:23 -18.3 °C -21.7 °C 34476.3 hPa NNE 14 km/h 14 km/h 68 % 0 mm
20:28 -18.4 °C -21.7 °C 34476.3 hPa NNE 14 km/h 14 km/h 68 % 0 mm
20:33 -18.5 °C -21.7 °C 34496.6 hPa NNE 14 km/h 14 km/h 68 % 0 mm
20:38 -18.6 °C -21.7 °C 34496.6 hPa NNE 14 km/h 14 km/h 68 % 0 mm
20:43 -18.6 °C -21.7 °C 34496.6 hPa NNE 14 km/h 14 km/h 69 % 0 mm
20:48 -18.7 °C -21.7 °C 34476.3 hPa NNE 14 km/h 14 km/h 69 % 0 mm
20:53 -18.8 °C -21.7 °C 34476.3 hPa NNE 14 km/h 14 km/h 70 % 0 mm
20:58 -18.8 °C -21.7 °C 34496.6 hPa NNE 14 km/h 14 km/h 71 % 0 mm
21:03 -18.9 °C -21.7 °C 34496.6 hPa NNE 14 km/h 14 km/h 72 % 0 mm
21:09 -18.9 °C -21.7 °C 34496.6 hPa NNE 14 km/h 14 km/h 73 % 0 mm
21:14 -19 °C -21.7 °C 34496.6 hPa NNE 14 km/h 14 km/h 73 % 0 mm
21:19 -19.1 °C -21.7 °C 34496.6 hPa NNE 14 km/h 14 km/h 74 % 0 mm
21:24 -19.1 °C -21.7 °C 34496.6 hPa NNE 14 km/h 14 km/h 74 % 0 mm
21:29 -19.1 °C -21.7 °C 34496.6 hPa NNE 14 km/h 14 km/h 75 % 0 mm
21:34 -19 °C -21.1 °C 34496.6 hPa NNE 14 km/h 14 km/h 76 % 0 mm
21:39 -19 °C -21.1 °C 34496.6 hPa NNE 14 km/h 14 km/h 76 % 0 mm
21:44 -19 °C -21.1 °C 34496.6 hPa NNE 14 km/h 14 km/h 77 % 0 mm
21:49 -18.9 °C -21.1 °C 34496.6 hPa NNE 14 km/h 14 km/h 77 % 0 mm
21:54 -18.9 °C -21.1 °C 34496.6 hPa NNE 14 km/h 14 km/h 78 % 0 mm
21:59 -18.9 °C -21.1 °C 34496.6 hPa NNE 14 km/h 14 km/h 78 % 0 mm
22:04 -18.8 °C -21.1 °C 34496.6 hPa NNE 14 km/h 14 km/h 78 % 0 mm
22:09 -18.7 °C -21.1 °C 34496.6 hPa NNE 14 km/h 14 km/h 78 % 0 mm
22:14 -18.7 °C -21.1 °C 34496.6 hPa NNE 14 km/h 14 km/h 78 % 0 mm
22:19 -18.7 °C -20.6 °C 34496.6 hPa NNE 14 km/h 14 km/h 79 % 0 mm
22:24 -18.6 °C -20.6 °C 34496.6 hPa NNE 14 km/h 14 km/h 79 % 0 mm
22:29 -18.6 °C -20.6 °C 34496.6 hPa NNE 14 km/h 14 km/h 80 % 0 mm
22:34 -18.6 °C -20.6 °C 34496.6 hPa Calm     80 % 0 mm
22:39 -18.6 °C -20.6 °C 34496.6 hPa Calm     80 % 0 mm
22:44 -18.6 °C -20.6 °C 34496.6 hPa Calm     80 % 0 mm
22:50 -18.5 °C -20.6 °C 34496.6 hPa Calm     80 % 0 mm
22:55 -18.5 °C -20.6 °C 34496.6 hPa Calm     81 % 0 mm
23:00 -18.5 °C -20.6 °C 34496.6 hPa Calm     81 % 0 mm
23:05 -18.5 °C -20.6 °C 34496.6 hPa Calm     82 % 0 mm
23:10 -18.6 °C -20.6 °C 34496.6 hPa Calm     82 % 0 mm
23:15 -18.6 °C -20.6 °C 34496.6 hPa Calm     82 % 0 mm
23:20 -18.6 °C -20.6 °C 34496.6 hPa Calm     82 % 0 mm
23:25 -18.6 °C -20.6 °C 34496.6 hPa Calm     82 % 0 mm
23:30 -18.6 °C -20.6 °C 34496.6 hPa Calm     81 % 0 mm
23:35 -18.6 °C -20.6 °C 34496.6 hPa Calm     81 % 0 mm
23:40 -18.6 °C -20.6 °C 34496.6 hPa Calm     81 % 0 mm
23:45 -18.7 °C -20.6 °C 34496.6 hPa Calm     81 % 0 mm
23:50 -18.7 °C -20.6 °C 34496.6 hPa Calm     81 % 0 mm
23:55 -18.8 °C -20.6 °C 34496.6 hPa Calm     81 % 0 mm
Le Gheer Warneton
Courtoisie de Weather Underground - 2.25 mb

Mise a jour : 21/02/2018 12:10:11
Généré par Cumulus 1.9.4 (1099)